Location: ??????
(36.0418°N, 43.6351°E)
Time: 03:14:10
(UTC+00:00)

Delta 2 Rocket - Pass Details

Date: 07 March 2021
Orbit: 415 x 803 km, 35.6° (Epoch: 22 April)

Event Time Altitude Azimuth Distance (km) Brightness Sun altitude
Exits shadow 02:33:13 17° 273° (W) 1,669 5.1 -11.8°
Maximum altitude 02:37:02 82° 187° (S) 712 3.8 -11.1°
Drops below altitude 10° 02:42:25 10° 100° (E) 2,273 8.0 -10.0°
Sets 02:45:00 0° 100° (E) 3,238 9.3 -9.4°
